Time,TemperatureF,DewpointF,PressureIn,WindDirection,WindDirectionDegrees,WindSpeedMPH,WindSpeedGustMPH,Humidity,HourlyPrecipIn,Conditions,Clouds,dailyrainin,SoftwareType,DateUTC
2013-02-26 00:00:00,36.5,30.9,29.80,South,179,0.0,0.0,80,0.00,,---,0.00,VWS V14.01,2013-02-26 08:00:00,
2013-02-26 00:05:00,36.5,30.9,29.80,South,178,0.0,0.0,80,0.00,,---,0.00,VWS V14.01,2013-02-26 08:05:00,
2013-02-26 00:10:00,36.1,30.6,29.80,South,179,0.0,0.0,80,0.00,,---,0.00,VWS V14.01,2013-02-26 08:10:00,
2013-02-26 00:15:00,36.0,30.4,29.80,South,179,0.0,0.0,80,0.00,,---,0.00,VWS V14.01,2013-02-26 08:15:00,
2013-02-26 00:20:00,36.0,30.4,29.80,South,179,0.0,0.0,80,0.00,,---,0.00,VWS V14.01,2013-02-26 08:20:00,
2013-02-26 00:25:00,36.0,30.4,29.80,South,179,0.0,0.0,80,0.00,,---,0.00,VWS V14.01,2013-02-26 08:25:00,
2013-02-26 00:30:00,35.8,30.5,29.80,South,178,0.0,0.0,81,0.00,,---,0.00,VWS V14.01,2013-02-26 08:30:00,
2013-02-26 00:35:00,35.8,30.5,29.80,South,179,0.0,0.0,81,0.00,,---,0.00,VWS V14.01,2013-02-26 08:35:00,
2013-02-26 00:40:00,35.6,30.4,29.80,South,178,0.0,0.0,81,0.00,,---,0.00,VWS V14.01,2013-02-26 08:40:00,
2013-02-26 00:45:00,35.4,30.2,29.80,South,178,0.0,0.0,81,0.00,,---,0.00,VWS V14.01,2013-02-26 08:45:00,
2013-02-26 00:50:00,35.4,30.2,29.83,South,178,0.0,0.0,81,0.00,,---,0.00,VWS V14.01,2013-02-26 08:50:00,
2013-02-26 00:55:00,35.2,30.3,29.83,South,179,0.0,0.0,82,0.00,,---,0.00,VWS V14.01,2013-02-26 08:55:00,
2013-02-26 01:00:00,35.1,30.1,29.83,South,179,0.0,0.0,82,0.00,,---,0.00,VWS V14.01,2013-02-26 09:00:00,
2013-02-26 01:05:00,35.1,30.1,29.83,South,178,0.0,0.0,82,0.00,,---,0.00,VWS V14.01,2013-02-26 09:05:00,
2013-02-26 01:10:00,34.9,30.0,29.83,South,178,0.0,0.0,82,0.00,,---,0.00,VWS V14.01,2013-02-26 09:10:00,
2013-02-26 01:15:00,34.9,30.0,29.83,South,179,0.0,0.0,82,0.00,,---,0.00,VWS V14.01,2013-02-26 09:15:00,
2013-02-26 01:20:00,34.9,30.2,29.83,South,179,0.0,0.0,83,0.00,,---,0.00,VWS V14.01,2013-02-26 09:20:00,
2013-02-26 01:25:00,34.9,30.2,29.83,South,178,0.0,0.0,83,0.00,,---,0.00,VWS V14.01,2013-02-26 09:25:00,
2013-02-26 01:29:00,34.9,30.2,29.83,South,179,0.0,0.0,83,0.00,,---,0.00,VWS V14.01,2013-02-26 09:29:00,
2013-02-26 01:34:00,34.9,30.5,29.83,South,179,0.0,0.0,84,0.00,,---,0.00,VWS V14.01,2013-02-26 09:34:00,
2013-02-26 01:39:00,34.9,30.5,29.83,South,179,0.0,0.0,84,0.00,,---,0.00,VWS V14.01,2013-02-26 09:39:00,
2013-02-26 01:44:00,34.9,30.5,29.83,South,178,0.0,0.0,84,0.00,,---,0.00,VWS V14.01,2013-02-26 09:44:00,
2013-02-26 01:49:00,34.9,30.5,29.83,South,179,0.0,0.0,84,0.00,,---,0.00,VWS V14.01,2013-02-26 09:49:00,
2013-02-26 01:54:00,34.7,30.4,29.83,South,178,0.0,0.0,84,0.00,,---,0.00,VWS V14.01,2013-02-26 09:54:00,
2013-02-26 01:59:00,34.7,30.7,29.83,South,178,0.0,0.0,85,0.00,,---,0.00,VWS V14.01,2013-02-26 09:59:00,
2013-02-26 02:04:00,34.9,30.8,29.80,South,179,0.0,0.0,85,0.00,,---,0.00,VWS V14.01,2013-02-26 10:04:00,
2013-02-26 02:09:00,34.9,30.8,29.80,South,178,0.0,0.0,85,0.00,,---,0.00,VWS V14.01,2013-02-26 10:09:00,
2013-02-26 02:14:00,34.7,30.7,29.80,South,179,0.0,0.0,85,0.00,,---,0.00,VWS V14.01,2013-02-26 10:14:00,
2013-02-26 02:19:00,34.7,30.7,29.83,South,178,0.0,0.0,85,0.00,,---,0.00,VWS V14.01,2013-02-26 10:19:00,
2013-02-26 02:24:00,34.5,30.5,29.83,South,178,0.0,0.0,85,0.00,,---,0.00,VWS V14.01,2013-02-26 10:24:00,
2013-02-26 02:29:00,34.5,30.5,29.83,South,179,0.0,0.0,85,0.00,,---,0.00,VWS V14.01,2013-02-26 10:29:00,
2013-02-26 02:34:00,34.3,30.3,29.83,South,179,0.0,0.0,85,0.00,,---,0.00,VWS V14.01,2013-02-26 10:34:00,
2013-02-26 02:39:00,34.3,30.3,29.83,South,179,0.0,0.0,85,0.00,,---,0.00,VWS V14.01,2013-02-26 10:39:00,
2013-02-26 02:44:00,34.3,30.3,29.83,South,178,0.0,0.0,85,0.00,,---,0.00,VWS V14.01,2013-02-26 10:44:00,
2013-02-26 02:49:00,34.2,30.1,29.83,South,178,0.0,0.0,85,0.00,,---,0.00,VWS V14.01,2013-02-26 10:49:00,
2013-02-26 02:54:00,34.2,30.1,29.83,South,178,0.0,0.0,85,0.00,,---,0.00,VWS V14.01,2013-02-26 10:54:00,
2013-02-26 02:59:00,34.3,30.3,29.83,South,179,0.0,0.0,85,0.00,,---,0.00,VWS V14.01,2013-02-26 10:59:00,
2013-02-26 03:04:00,34.2,29.8,29.80,South,179,0.0,0.0,84,0.00,,---,0.00,VWS V14.01,2013-02-26 11:04:00,
2013-02-26 03:09:00,34.0,30.0,29.80,South,178,0.0,0.0,85,0.00,,---,0.00,VWS V14.01,2013-02-26 11:09:00,
2013-02-26 03:14:00,34.0,30.0,29.80,South,179,0.0,0.0,85,0.00,,---,0.00,VWS V14.01,2013-02-26 11:14:00,
2013-02-26 03:19:00,33.8,29.8,29.83,South,178,0.0,0.0,85,0.00,,---,0.00,VWS V14.01,2013-02-26 11:19:00,
2013-02-26 03:24:00,33.8,29.8,29.83,South,179,0.0,0.0,85,0.00,,---,0.00,VWS V14.01,2013-02-26 11:24:00,
2013-02-26 03:29:00,33.8,29.8,29.83,South,178,0.0,0.0,85,0.00,,---,0.00,VWS V14.01,2013-02-26 11:29:00,
2013-02-26 03:34:00,33.6,29.6,29.83,South,178,0.0,0.0,85,0.00,,---,0.00,VWS V14.01,2013-02-26 11:34:00,
2013-02-26 03:39:00,33.6,29.9,29.83,South,178,0.0,0.0,86,0.00,,---,0.00,VWS V14.01,2013-02-26 11:39:00,
2013-02-26 03:44:00,33.6,29.9,29.83,South,178,0.0,0.0,86,0.00,,---,0.00,VWS V14.01,2013-02-26 11:44:00,
2013-02-26 03:49:00,33.6,29.9,29.83,South,178,0.0,0.0,86,0.00,,---,0.00,VWS V14.01,2013-02-26 11:49:00,
2013-02-26 03:54:00,33.6,29.9,29.83,South,178,0.0,0.0,86,0.00,,---,0.00,VWS V14.01,2013-02-26 11:54:00,
2013-02-26 03:59:00,33.6,29.9,29.83,South,178,0.0,0.0,86,0.00,,---,0.00,VWS V14.01,2013-02-26 11:59:00,
2013-02-26 04:04:00,33.6,29.9,29.83,South,178,0.0,0.0,86,0.00,,---,0.00,VWS V14.01,2013-02-26 12:04:00,
2013-02-26 04:09:00,33.6,29.9,29.83,South,178,0.0,0.0,86,0.00,,---,0.00,VWS V14.01,2013-02-26 12:09:00,
2013-02-26 04:14:00,33.6,29.9,29.83,South,178,0.0,0.0,86,0.00,,---,0.00,VWS V14.01,2013-02-26 12:14:00,
2013-02-26 04:19:00,33.6,29.9,29.83,South,179,0.0,0.0,86,0.00,,---,0.00,VWS V14.01,2013-02-26 12:19:00,
2013-02-26 04:24:00,33.4,29.7,29.83,South,179,0.0,0.0,86,0.00,,---,0.00,VWS V14.01,2013-02-26 12:24:00,
2013-02-26 04:29:00,33.4,29.7,29.83,South,179,0.0,0.0,86,0.00,,---,0.00,VWS V14.01,2013-02-26 12:29:00,
2013-02-26 04:34:00,33.4,29.7,29.83,South,179,0.0,0.0,86,0.00,,---,0.00,VWS V14.01,2013-02-26 12:34:00,
2013-02-26 04:39:00,33.4,29.7,29.83,South,179,0.0,0.0,86,0.00,,---,0.00,VWS V14.01,2013-02-26 12:39:00,
2013-02-26 04:44:00,33.4,29.7,29.83,South,178,0.0,0.0,86,0.00,,---,0.00,VWS V14.01,2013-02-26 12:44:00,
2013-02-26 04:49:00,33.4,29.7,29.83,South,178,0.0,0.0,86,0.00,,---,0.00,VWS V14.01,2013-02-26 12:49:00,
2013-02-26 04:54:00,33.3,29.5,29.83,South,179,0.0,0.0,86,0.00,,---,0.00,VWS V14.01,2013-02-26 12:54:00,
2013-02-26 04:59:00,33.6,29.9,29.83,South,178,0.0,0.0,86,0.00,,---,0.00,VWS V14.01,2013-02-26 12:59:00,
2013-02-26 05:04:00,33.4,29.7,29.83,South,179,0.0,0.0,86,0.00,,---,0.00,VWS V14.01,2013-02-26 13:04:00,
2013-02-26 05:09:00,33.4,29.7,29.83,South,179,0.0,0.0,86,0.00,,---,0.00,VWS V14.01,2013-02-26 13:09:00,
2013-02-26 05:14:00,33.6,29.9,29.83,South,178,0.0,0.0,86,0.00,,---,0.00,VWS V14.01,2013-02-26 13:14:00,
2013-02-26 05:19:00,33.6,29.9,29.83,South,179,0.0,0.0,86,0.00,,---,0.00,VWS V14.01,2013-02-26 13:19:00,
2013-02-26 05:24:00,33.6,29.9,29.83,South,179,0.0,0.0,86,0.00,,---,0.00,VWS V14.01,2013-02-26 13:24:00,
2013-02-26 05:29:00,33.6,30.2,29.83,South,179,0.0,0.0,87,0.00,,---,0.00,VWS V14.01,2013-02-26 13:29:00,
2013-02-26 05:34:00,33.6,30.2,29.83,South,179,0.0,0.0,87,0.00,,---,0.00,VWS V14.01,2013-02-26 13:34:00,
2013-02-26 05:39:00,33.8,30.4,29.83,South,179,0.0,0.0,87,0.00,,---,0.00,VWS V14.01,2013-02-26 13:39:00,
2013-02-26 05:44:00,33.8,30.4,29.83,South,178,0.0,0.0,87,0.00,,---,0.00,VWS V14.01,2013-02-26 13:44:00,
2013-02-26 05:49:00,33.8,30.4,29.83,South,179,0.0,0.0,87,0.00,,---,0.00,VWS V14.01,2013-02-26 13:49:00,
2013-02-26 05:54:00,34.0,30.8,29.83,South,178,0.0,0.0,88,0.00,,---,0.00,VWS V14.01,2013-02-26 13:54:00,
2013-02-26 05:59:00,34.0,30.8,29.83,South,179,0.0,0.0,88,0.00,,---,0.00,VWS V14.01,2013-02-26 13:59:00,
2013-02-26 06:04:00,34.0,30.8,29.83,South,179,0.0,0.0,88,0.00,,---,0.00,VWS V14.01,2013-02-26 14:04:00,
2013-02-26 06:09:00,34.2,31.0,29.83,South,178,0.0,0.0,88,0.00,,---,0.00,VWS V14.01,2013-02-26 14:09:00,
2013-02-26 06:14:00,34.2,31.0,29.83,South,178,0.0,0.0,88,0.00,,---,0.00,VWS V14.01,2013-02-26 14:14:00,
2013-02-26 06:19:00,34.3,31.2,29.83,South,178,0.0,0.0,88,0.00,,---,0.00,VWS V14.01,2013-02-26 14:19:00,
2013-02-26 06:24:00,34.3,31.4,29.83,South,179,0.0,0.0,89,0.00,,---,0.00,VWS V14.01,2013-02-26 14:24:00,
2013-02-26 06:29:00,34.3,31.4,29.83,South,178,0.0,0.0,89,0.00,,---,0.00,VWS V14.01,2013-02-26 14:29:00,
2013-02-26 06:34:00,34.3,31.4,29.83,South,179,0.0,0.0,89,0.00,,---,0.00,VWS V14.01,2013-02-26 14:34:00,
2013-02-26 06:39:00,34.5,31.6,29.83,South,179,0.0,0.0,89,0.00,,---,0.00,VWS V14.01,2013-02-26 14:39:00,
2013-02-26 06:44:00,34.5,31.6,29.83,South,178,0.0,0.0,89,0.00,,---,0.00,VWS V14.01,2013-02-26 14:44:00,
2013-02-26 06:49:00,34.5,31.6,29.83,South,179,0.0,0.0,89,0.00,,---,0.00,VWS V14.01,2013-02-26 14:49:00,
2013-02-26 06:54:00,34.5,31.6,29.83,South,179,0.0,0.0,89,0.00,,---,0.00,VWS V14.01,2013-02-26 14:54:00,
2013-02-26 06:59:00,34.7,31.8,29.83,South,179,0.0,0.0,89,0.00,,---,0.00,VWS V14.01,2013-02-26 14:59:00,
2013-02-26 07:04:00,34.7,31.8,29.83,South,178,0.0,0.0,89,0.00,,---,0.00,VWS V14.01,2013-02-26 15:04:00,
2013-02-26 07:09:00,34.7,31.8,29.83,South,179,0.0,0.0,89,0.00,,---,0.00,VWS V14.01,2013-02-26 15:09:00,
2013-02-26 07:14:00,34.9,32.0,29.83,South,178,0.0,0.0,89,0.00,,---,0.00,VWS V14.01,2013-02-26 15:14:00,
2013-02-26 07:19:00,34.9,32.0,29.83,South,179,0.0,0.0,89,0.00,,---,0.00,VWS V14.01,2013-02-26 15:19:00,
2013-02-26 07:24:00,35.1,32.2,29.83,South,179,0.0,0.0,89,0.00,,---,0.00,VWS V14.01,2013-02-26 15:24:00,
2013-02-26 07:29:00,35.1,32.4,29.83,South,178,0.0,0.0,90,0.00,,---,0.00,VWS V14.01,2013-02-26 15:29:00,
2013-02-26 07:34:00,35.1,32.4,29.83,South,179,0.0,0.0,90,0.00,,---,0.00,VWS V14.01,2013-02-26 15:34:00,
2013-02-26 07:39:00,35.2,32.6,29.83,South,179,0.0,0.0,90,0.00,,---,0.00,VWS V14.01,2013-02-26 15:39:00,
2013-02-26 07:44:00,35.4,32.8,29.83,South,179,0.0,0.0,90,0.00,,---,0.00,VWS V14.01,2013-02-26 15:44:00,
2013-02-26 07:49:00,35.6,33.0,29.83,South,179,0.0,0.0,90,0.00,,---,0.00,VWS V14.01,2013-02-26 15:49:00,
2013-02-26 07:54:00,35.6,33.0,29.83,South,178,0.0,0.0,90,0.00,,---,0.00,VWS V14.01,2013-02-26 15:54:00,
2013-02-26 07:59:00,36.0,33.3,29.83,South,178,0.0,0.0,90,0.00,,---,0.00,VWS V14.01,2013-02-26 15:59:00,
2013-02-26 08:04:00,36.1,33.5,29.83,South,179,0.0,0.0,90,0.00,,---,0.00,VWS V14.01,2013-02-26 16:04:00,
2013-02-26 08:09:00,36.3,33.7,29.83,South,178,0.0,0.0,90,0.00,,---,0.00,VWS V14.01,2013-02-26 16:09:00,
2013-02-26 08:14:00,36.7,34.0,29.83,South,179,0.0,0.0,90,0.00,,---,0.00,VWS V14.01,2013-02-26 16:14:00,
2013-02-26 08:19:00,37.0,34.4,29.83,South,179,0.0,0.0,90,0.00,,---,0.00,VWS V14.01,2013-02-26 16:19:00,
2013-02-26 08:24:00,37.0,34.7,29.83,South,178,0.0,0.0,91,0.00,,---,0.00,VWS V14.01,2013-02-26 16:24:00,
2013-02-26 08:29:00,37.4,34.7,29.83,South,178,0.0,0.0,90,0.00,,---,0.00,VWS V14.01,2013-02-26 16:29:00,
2013-02-26 08:34:00,37.6,34.9,29.83,SE,125,0.0,0.0,90,0.00,,---,0.00,VWS V14.01,2013-02-26 16:34:00,
2013-02-26 08:39:00,37.8,35.1,29.83,ENE,70,0.0,0.0,90,0.00,,---,0.00,VWS V14.01,2013-02-26 16:39:00,
2013-02-26 08:44:00,38.5,35.8,29.83,ENE,74,2.7,2.7,90,0.00,,---,0.00,VWS V14.01,2013-02-26 16:44:00,
2013-02-26 08:49:00,38.7,35.7,29.85,ENE,69,2.2,2.2,89,0.00,,---,0.00,VWS V14.01,2013-02-26 16:49:00,
2013-02-26 08:54:00,38.8,35.9,29.85,ENE,78,3.1,3.1,89,0.00,,---,0.00,VWS V14.01,2013-02-26 16:54:00,
2013-02-26 08:59:00,39.2,36.0,29.85,East,87,0.0,0.0,88,0.00,,---,0.00,VWS V14.01,2013-02-26 16:59:00,
2013-02-26 09:04:00,39.6,36.3,29.85,East,87,0.0,0.0,88,0.00,,---,0.00,VWS V14.01,2013-02-26 17:04:00,
2013-02-26 09:09:00,39.6,36.3,29.85,East,87,0.0,0.0,88,0.00,,---,0.00,VWS V14.01,2013-02-26 17:09:00,
2013-02-26 09:14:00,39.6,36.3,29.85,East,82,2.2,2.7,88,0.00,,---,0.00,VWS V14.01,2013-02-26 17:14:00,
2013-02-26 09:19:00,39.6,36.3,29.83,SE,126,3.6,3.6,88,0.00,,---,0.00,VWS V14.01,2013-02-26 17:19:00,
2013-02-26 09:24:00,41.4,37.2,29.83,SSE,165,3.6,3.6,85,0.00,,---,0.00,VWS V14.01,2013-02-26 17:24:00,
2013-02-26 09:29:00,41.4,37.2,29.83,South,173,2.2,2.2,85,0.00,,---,0.00,VWS V14.01,2013-02-26 17:29:00,
2013-02-26 09:34:00,41.4,37.2,29.83,WSW,254,2.2,2.2,85,0.00,,---,0.00,VWS V14.01,2013-02-26 17:34:00,
2013-02-26 09:39:00,41.4,37.2,29.83,SE,146,2.2,3.1,85,0.00,,---,0.00,VWS V14.01,2013-02-26 17:39:00,
2013-02-26 09:44:00,41.4,37.2,29.83,SSE,161,0.0,0.0,85,0.00,,---,0.00,VWS V14.01,2013-02-26 17:44:00,
2013-02-26 09:49:00,41.4,37.2,29.83,ENE,67,5.4,5.4,85,0.00,,---,0.00,VWS V14.01,2013-02-26 17:49:00,
2013-02-26 09:54:00,41.4,37.2,29.83,WSW,257,2.2,2.2,85,0.00,,---,0.00,VWS V14.01,2013-02-26 17:54:00,
2013-02-26 09:59:00,41.4,37.2,29.83,ENE,77,2.7,2.7,85,0.00,,---,0.00,VWS V14.01,2013-02-26 17:59:00,
2013-02-26 10:04:00,41.4,37.2,29.83,South,174,3.6,3.6,85,0.00,,---,0.00,VWS V14.01,2013-02-26 18:04:00,
2013-02-26 10:09:00,41.4,37.2,29.83,South,169,3.1,4.0,85,0.00,,---,0.00,VWS V14.01,2013-02-26 18:09:00,
2013-02-26 10:14:00,41.4,37.2,29.83,SSE,166,6.3,6.3,85,0.00,,---,0.00,VWS V14.01,2013-02-26 18:14:00,
2013-02-26 10:19:00,41.4,37.2,29.83,SE,146,4.0,5.4,85,0.00,,---,0.00,VWS V14.01,2013-02-26 18:19:00,
2013-02-26 10:24:00,41.4,37.2,29.83,NE,53,3.1,3.1,85,0.00,,---,0.00,VWS V14.01,2013-02-26 18:24:00,
2013-02-26 10:29:00,41.4,37.2,29.83,South,173,3.1,3.1,85,0.00,,---,0.00,VWS V14.01,2013-02-26 18:29:00,
2013-02-26 10:34:00,41.4,37.2,29.83,South,173,3.1,5.4,85,0.00,,---,0.00,VWS V14.01,2013-02-26 18:34:00,
2013-02-26 10:39:00,41.4,37.2,29.83,SSW,197,6.3,6.3,85,0.00,,---,0.00,VWS V14.01,2013-02-26 18:39:00,
2013-02-26 10:44:00,41.4,37.2,29.83,SSE,154,3.6,3.6,85,0.00,,---,0.00,VWS V14.01,2013-02-26 18:44:00,
2013-02-26 10:49:00,41.4,37.2,29.83,ENE,62,0.0,0.0,85,0.00,,---,0.00,VWS V14.01,2013-02-26 18:49:00,
2013-02-26 10:54:00,41.4,37.2,29.83,SW,234,3.1,3.1,85,0.00,,---,0.00,VWS V14.01,2013-02-26 18:54:00,
2013-02-26 10:59:00,41.4,37.2,29.83,South,175,2.2,2.2,85,0.00,,---,0.00,VWS V14.01,2013-02-26 18:59:00,
2013-02-26 11:04:00,41.4,37.2,29.80,WSW,253,0.0,2.7,85,0.00,,---,0.00,VWS V14.01,2013-02-26 19:04:00,
2013-02-26 11:09:00,41.4,37.2,29.80,South,187,3.1,3.1,85,0.00,,---,0.00,VWS V14.01,2013-02-26 19:09:00,
2013-02-26 11:14:00,41.4,37.2,29.80,SSE,153,3.6,3.6,85,0.00,,---,0.00,VWS V14.01,2013-02-26 19:14:00,
2013-02-26 11:19:00,41.4,37.2,29.80,WSW,252,2.2,2.2,85,0.00,,---,0.00,VWS V14.01,2013-02-26 19:19:00,
2013-02-26 11:24:00,41.4,37.2,29.80,SSE,161,0.0,0.0,85,0.00,,---,0.00,VWS V14.01,2013-02-26 19:24:00,
2013-02-26 11:29:00,41.4,37.2,29.80,SSE,168,0.0,0.0,85,0.00,,---,0.00,VWS V14.01,2013-02-26 19:29:00,
2013-02-26 11:34:00,41.4,37.2,29.80,SE,141,2.7,2.7,85,0.00,,---,0.00,VWS V14.01,2013-02-26 19:34:00,
2013-02-26 11:39:00,41.4,37.2,29.80,SW,219,0.0,0.0,85,0.00,,---,0.00,VWS V14.01,2013-02-26 19:39:00,
2013-02-26 11:44:00,41.4,37.2,29.80,SE,129,2.2,2.2,85,0.00,,---,0.00,VWS V14.01,2013-02-26 19:44:00,
2013-02-26 11:49:00,41.4,37.2,29.80,SW,235,0.0,0.0,85,0.00,,---,0.00,VWS V14.01,2013-02-26 19:49:00,
2013-02-26 11:54:00,41.4,37.2,29.80,SE,146,3.6,3.6,85,0.00,,---,0.00,VWS V14.01,2013-02-26 19:54:00,
2013-02-26 11:59:00,41.4,37.2,29.80,SSE,149,3.6,3.6,85,0.00,,---,0.00,VWS V14.01,2013-02-26 19:59:00,
2013-02-26 12:04:00,41.4,37.2,29.80,West,262,2.7,2.7,85,0.00,,---,0.00,VWS V14.01,2013-02-26 20:04:00,
2013-02-26 12:09:00,41.4,37.2,29.80,SW,215,4.9,8.3,85,0.00,,---,0.00,VWS V14.01,2013-02-26 20:09:00,
2013-02-26 12:14:00,41.4,37.2,29.80,SE,138,2.2,2.2,85,0.00,,---,0.00,VWS V14.01,2013-02-26 20:14:00,
2013-02-26 12:19:00,41.4,37.2,29.80,SW,231,4.9,4.9,85,0.00,,---,0.00,VWS V14.01,2013-02-26 20:19:00,
2013-02-26 12:24:00,41.4,37.2,29.80,SSW,209,3.6,3.6,85,0.00,,---,0.00,VWS V14.01,2013-02-26 20:24:00,
2013-02-26 12:29:00,41.4,37.2,29.80,WSW,256,3.6,3.6,85,0.00,,---,0.00,VWS V14.01,2013-02-26 20:29:00,
2013-02-26 12:34:00,46.4,31.6,29.80,SSE,163,3.1,3.1,56,0.00,,---,0.00,VWS V14.01,2013-02-26 20:34:00,
2013-02-26 12:39:00,46.6,31.3,29.80,SSW,211,4.0,4.0,55,0.00,,---,0.00,VWS V14.01,2013-02-26 20:39:00,
2013-02-26 12:44:00,46.6,31.3,29.80,South,179,3.1,3.1,55,0.00,,---,0.00,VWS V14.01,2013-02-26 20:44:00,
2013-02-26 12:49:00,46.9,31.6,29.80,ENE,76,2.2,2.2,55,0.00,,---,0.00,VWS V14.01,2013-02-26 20:49:00,
2013-02-26 12:54:00,46.9,31.2,29.77,WSW,239,5.8,5.8,54,0.00,,---,0.00,VWS V14.01,2013-02-26 20:54:00,
2013-02-26 12:59:00,46.9,31.2,29.77,SW,220,7.6,7.6,54,0.00,,---,0.00,VWS V14.01,2013-02-26 20:59:00,
2013-02-26 13:04:00,47.1,30.9,29.77,SE,143,3.1,3.1,53,0.00,,---,0.00,VWS V14.01,2013-02-26 21:04:00,
2013-02-26 13:09:00,47.1,30.9,29.77,SSE,162,3.1,3.1,53,0.00,,---,0.00,VWS V14.01,2013-02-26 21:09:00,
2013-02-26 13:14:00,47.1,30.9,29.77,East,99,2.2,2.2,53,0.00,,---,0.00,VWS V14.01,2013-02-26 21:14:00,
2013-02-26 13:19:00,47.5,31.7,29.77,SSW,200,3.6,4.9,54,0.00,,---,0.00,VWS V14.01,2013-02-26 21:19:00,
2013-02-26 13:24:00,47.5,31.2,29.77,SW,214,2.7,5.8,53,0.00,,---,0.00,VWS V14.01,2013-02-26 21:24:00,
2013-02-26 13:29:00,47.5,31.2,29.77,South,173,0.0,0.0,53,0.00,,---,0.00,VWS V14.01,2013-02-26 21:29:00,
2013-02-26 13:34:00,47.5,31.2,29.77,SSW,206,2.7,2.7,53,0.00,,---,0.00,VWS V14.01,2013-02-26 21:34:00,
2013-02-26 13:39:00,47.7,31.4,29.77,WSW,244,4.0,4.0,53,0.00,,---,0.00,VWS V14.01,2013-02-26 21:39:00,
2013-02-26 13:44:00,47.7,31.4,29.77,WSW,258,3.1,5.8,53,0.00,,---,0.00,VWS V14.01,2013-02-26 21:44:00,
2013-02-26 13:49:00,48.0,31.2,29.77,SSE,158,2.2,2.2,52,0.00,,---,0.00,VWS V14.01,2013-02-26 21:49:00,
2013-02-26 13:54:00,48.2,31.4,29.77,SE,125,3.6,6.7,52,0.00,,---,0.00,VWS V14.01,2013-02-26 21:54:00,
2013-02-26 13:59:00,48.4,31.6,29.77,SSW,210,0.0,0.0,52,0.00,,---,0.00,VWS V14.01,2013-02-26 21:59:00,
2013-02-26 14:04:00,48.7,31.9,29.74,SW,226,4.0,4.0,52,0.00,,---,0.00,VWS V14.01,2013-02-26 22:04:00,
2013-02-26 14:09:00,48.9,31.6,29.74,ESE,119,2.7,2.7,51,0.00,,---,0.00,VWS V14.01,2013-02-26 22:09:00,
2013-02-26 14:14:00,48.9,32.1,29.74,South,179,2.7,4.5,52,0.00,,---,0.00,VWS V14.01,2013-02-26 22:14:00,
2013-02-26 14:19:00,48.9,32.1,29.74,West,260,3.1,3.1,52,0.00,,---,0.00,VWS V14.01,2013-02-26 22:19:00,
2013-02-26 14:24:00,48.7,31.4,29.74,SW,217,3.6,4.0,51,0.00,,---,0.00,VWS V14.01,2013-02-26 22:24:00,
2013-02-26 14:29:00,48.6,31.3,29.74,WSW,250,0.0,3.1,51,0.00,,---,0.00,VWS V14.01,2013-02-26 22:29:00,
2013-02-26 14:34:00,48.4,30.6,29.74,SW,220,4.9,8.7,50,0.00,,---,0.00,VWS V14.01,2013-02-26 22:34:00,
2013-02-26 14:39:00,48.2,30.5,29.74,SSE,152,3.6,3.6,50,0.00,,---,0.00,VWS V14.01,2013-02-26 22:39:00,
2013-02-26 14:44:00,48.2,30.9,29.74,SSW,208,0.0,2.2,51,0.00,,---,0.00,VWS V14.01,2013-02-26 22:44:00,
2013-02-26 14:49:00,48.0,30.8,29.74,WNW,295,6.3,6.3,51,0.00,,---,0.00,VWS V14.01,2013-02-26 22:49:00,
2013-02-26 14:53:00,48.0,30.3,29.74,West,271,3.1,4.0,50,0.00,,---,0.00,VWS V14.01,2013-02-26 22:53:00,
2013-02-26 14:58:00,48.0,30.3,29.74,SSE,150,3.1,3.1,50,0.00,,---,0.00,VWS V14.01,2013-02-26 22:58:00,
2013-02-26 15:03:00,48.2,30.5,29.77,SW,222,4.0,4.0,50,0.00,,---,0.00,VWS V14.01,2013-02-26 23:03:00,
2013-02-26 15:08:00,48.2,30.5,29.77,SSW,209,3.6,4.0,50,0.00,,---,0.00,VWS V14.01,2013-02-26 23:08:00,
2013-02-26 15:13:00,48.2,30.5,29.77,SW,216,5.4,5.4,50,0.00,,---,0.00,VWS V14.01,2013-02-26 23:13:00,
2013-02-26 15:18:00,48.0,30.8,29.74,South,186,2.2,2.2,51,0.00,,---,0.00,VWS V14.01,2013-02-26 23:18:00,
2013-02-26 15:23:00,48.0,30.3,29.74,WSW,241,4.0,4.0,50,0.00,,---,0.00,VWS V14.01,2013-02-26 23:23:00,
2013-02-26 15:28:00,47.8,30.1,29.74,WSW,239,2.7,4.0,50,0.00,,---,0.00,VWS V14.01,2013-02-26 23:28:00,
2013-02-26 15:33:00,47.8,30.1,29.74,South,190,2.2,2.7,50,0.00,,---,0.00,VWS V14.01,2013-02-26 23:33:00,
2013-02-26 15:38:00,47.8,30.1,29.74,SW,219,4.0,4.0,50,0.00,,---,0.00,VWS V14.01,2013-02-26 23:38:00,
2013-02-26 15:43:00,47.7,30.0,29.74,WSW,247,4.0,4.9,50,0.00,,---,0.00,VWS V14.01,2013-02-26 23:43:00,
2013-02-26 15:48:00,47.7,30.0,29.74,WNW,289,3.6,3.6,50,0.00,,---,0.00,VWS V14.01,2013-02-26 23:48:00,
2013-02-26 15:53:00,47.7,30.0,29.74,West,277,4.0,4.0,50,0.00,,---,0.00,VWS V14.01,2013-02-26 23:53:00,
2013-02-26 15:58:00,47.5,29.8,29.74,SW,234,4.9,4.9,50,0.00,,---,0.00,VWS V14.01,2013-02-26 23:58:00,
2013-02-26 16:03:00,47.5,29.8,29.74,WNW,291,3.6,3.6,50,0.00,,---,0.00,VWS V14.01,2013-02-27 00:03:00,
2013-02-26 16:08:00,47.3,29.6,29.74,WSW,248,2.2,2.7,50,0.00,,---,0.00,VWS V14.01,2013-02-27 00:08:00,
2013-02-26 16:13:00,47.1,29.9,29.74,SSE,155,0.0,0.0,51,0.00,,---,0.00,VWS V14.01,2013-02-27 00:13:00,
2013-02-26 16:18:00,47.1,29.9,29.74,SSW,209,2.7,2.7,51,0.00,,---,0.00,VWS V14.01,2013-02-27 00:18:00,
2013-02-26 16:23:00,46.9,29.8,29.74,SSE,155,4.0,4.0,51,0.00,,---,0.00,VWS V14.01,2013-02-27 00:23:00,
2013-02-26 16:28:00,46.9,29.8,29.74,West,261,0.0,0.0,51,0.00,,---,0.00,VWS V14.01,2013-02-27 00:28:00,
2013-02-26 16:33:00,46.8,29.6,29.74,South,173,2.2,2.2,51,0.00,,---,0.00,VWS V14.01,2013-02-27 00:33:00,
2013-02-26 16:38:00,46.8,29.6,29.74,South,189,3.1,3.6,51,0.00,,---,0.00,VWS V14.01,2013-02-27 00:38:00,
2013-02-26 16:43:00,46.8,29.6,29.74,WSW,244,2.7,2.7,51,0.00,,---,0.00,VWS V14.01,2013-02-27 00:43:00,
2013-02-26 16:48:00,46.6,29.4,29.74,SW,231,0.0,0.0,51,0.00,,---,0.00,VWS V14.01,2013-02-27 00:48:00,
2013-02-26 16:53:00,46.6,29.4,29.74,West,259,0.0,0.0,51,0.00,,---,0.00,VWS V14.01,2013-02-27 00:53:00,
2013-02-26 16:58:00,46.4,29.3,29.74,SSW,197,0.0,0.0,51,0.00,,---,0.00,VWS V14.01,2013-02-27 00:58:00,
2013-02-26 17:03:00,46.2,29.6,29.74,SW,223,0.0,0.0,52,0.00,,---,0.00,VWS V14.01,2013-02-27 01:03:00,
2013-02-26 17:08:00,46.2,29.6,29.74,SSE,160,3.1,3.1,52,0.00,,---,0.00,VWS V14.01,2013-02-27 01:08:00,
2013-02-26 17:13:00,46.0,29.4,29.74,SE,132,3.1,3.1,52,0.00,,---,0.00,VWS V14.01,2013-02-27 01:13:00,
2013-02-26 17:18:00,46.0,29.4,29.74,SSE,167,2.7,3.6,52,0.00,,---,0.00,VWS V14.01,2013-02-27 01:18:00,
2013-02-26 17:23:00,45.9,29.2,29.74,WSW,246,2.7,5.4,52,0.00,,---,0.00,VWS V14.01,2013-02-27 01:23:00,
2013-02-26 17:28:00,45.7,29.5,29.74,SSW,201,0.0,0.0,53,0.00,,---,0.00,VWS V14.01,2013-02-27 01:28:00,
2013-02-26 17:33:00,45.7,29.5,29.74,ENE,74,2.7,2.7,53,0.00,,---,0.00,VWS V14.01,2013-02-27 01:33:00,
2013-02-26 17:38:00,45.5,29.4,29.74,SSE,149,0.0,0.0,53,0.00,,---,0.00,VWS V14.01,2013-02-27 01:38:00,
2013-02-26 17:43:00,45.3,29.2,29.74,SSE,149,0.0,0.0,53,0.00,,---,0.00,VWS V14.01,2013-02-27 01:43:00,
2013-02-26 17:48:00,45.3,29.7,29.74,SE,129,0.0,0.0,54,0.00,,---,0.00,VWS V14.01,2013-02-27 01:48:00,
2013-02-26 17:53:00,45.1,29.5,29.74,ESE,119,0.0,0.0,54,0.00,,---,0.00,VWS V14.01,2013-02-27 01:53:00,
2013-02-26 17:58:00,45.1,29.5,29.74,South,176,0.0,0.0,54,0.00,,---,0.00,VWS V14.01,2013-02-27 01:58:00,
2013-02-26 18:03:00,45.0,29.3,29.74,SSE,166,0.0,0.0,54,0.00,,---,0.00,VWS V14.01,2013-02-27 02:03:00,
2013-02-26 18:08:00,44.8,29.6,29.74,SSE,166,0.0,0.0,55,0.00,,---,0.00,VWS V14.01,2013-02-27 02:08:00,
2013-02-26 18:13:00,44.8,29.6,29.74,SE,140,0.0,0.0,55,0.00,,---,0.00,VWS V14.01,2013-02-27 02:13:00,
2013-02-26 18:19:00,44.6,29.5,29.74,SE,140,0.0,0.0,55,0.00,,---,0.00,VWS V14.01,2013-02-27 02:19:00,
2013-02-26 18:24:00,44.4,29.7,29.74,South,178,0.0,0.0,56,0.00,,---,0.00,VWS V14.01,2013-02-27 02:24:00,
2013-02-26 18:29:00,44.2,29.5,29.74,South,178,0.0,0.0,56,0.00,,---,0.00,VWS V14.01,2013-02-27 02:29:00,
2013-02-26 18:34:00,44.2,29.5,29.74,SSW,194,0.0,0.0,56,0.00,,---,0.00,VWS V14.01,2013-02-27 02:34:00,
2013-02-26 18:39:00,44.2,30.0,29.74,SSW,194,0.0,0.0,57,0.00,,---,0.00,VWS V14.01,2013-02-27 02:39:00,
2013-02-26 18:44:00,44.1,29.8,29.74,South,184,0.0,0.0,57,0.00,,---,0.00,VWS V14.01,2013-02-27 02:44:00,
2013-02-26 18:49:00,44.1,29.8,29.74,South,184,0.0,0.0,57,0.00,,---,0.00,VWS V14.01,2013-02-27 02:49:00,
2013-02-26 18:54:00,44.1,30.2,29.74,South,184,0.0,0.0,58,0.00,,---,0.00,VWS V14.01,2013-02-27 02:54:00,
2013-02-26 18:59:00,43.9,30.1,29.74,South,184,0.0,0.0,58,0.00,,---,0.00,VWS V14.01,2013-02-27 02:59:00,
2013-02-26 19:04:00,43.7,30.3,29.74,South,184,0.0,0.0,59,0.00,,---,0.00,VWS V14.01,2013-02-27 03:04:00,
2013-02-26 19:09:00,43.7,30.3,29.74,South,184,0.0,0.0,59,0.00,,---,0.00,VWS V14.01,2013-02-27 03:09:00,
2013-02-26 20:04:00,43.2,31.4,29.71,SSE,151,0.0,0.0,63,0.00,,---,0.00,VWS V14.01,2013-02-27 04:04:00,
2013-02-26 20:09:00,43.2,31.4,29.71,SSE,153,0.0,0.0,63,0.00,,---,0.00,VWS V14.01,2013-02-27 04:09:00,
2013-02-26 20:14:00,43.2,31.4,29.71,SSE,153,0.0,0.0,63,0.00,,---,0.00,VWS V14.01,2013-02-27 04:14:00,
2013-02-26 20:19:00,43.2,31.4,29.71,SSE,154,0.0,0.0,63,0.00,,---,0.00,VWS V14.01,2013-02-27 04:19:00,
2013-02-26 20:24:00,43.2,31.4,29.71,SSE,154,0.0,0.0,63,0.00,,---,0.00,VWS V14.01,2013-02-27 04:24:00,
2013-02-26 20:29:00,43.2,31.4,29.71,SSW,209,2.2,3.1,63,0.00,,---,0.00,VWS V14.01,2013-02-27 04:29:00,
2013-02-26 20:34:00,43.2,31.4,29.71,South,184,0.0,0.0,63,0.00,,---,0.00,VWS V14.01,2013-02-27 04:34:00,
2013-02-26 20:39:00,43.2,31.4,29.71,South,184,0.0,0.0,63,0.00,,---,0.00,VWS V14.01,2013-02-27 04:39:00,
2013-02-26 20:44:00,43.2,31.4,29.71,South,175,0.0,0.0,63,0.00,,---,0.00,VWS V14.01,2013-02-27 04:44:00,
2013-02-26 20:49:00,43.2,31.4,29.74,SW,225,0.0,0.0,63,0.00,,---,0.00,VWS V14.01,2013-02-27 04:49:00,
2013-02-26 20:54:00,43.2,31.4,29.74,SE,136,0.0,0.0,63,0.00,,---,0.00,VWS V14.01,2013-02-27 04:54:00,
2013-02-26 20:59:00,43.2,31.4,29.74,NNW,336,0.0,2.2,63,0.00,,---,0.00,VWS V14.01,2013-02-27 04:59:00,
2013-02-26 21:00:00,43.2,31.4,29.74,WNW,295,2.7,2.7,63,0.00,,---,0.00,VWS V14.01,2013-02-27 05:00:00,
2013-02-26 21:05:00,43.2,31.4,29.74,South,175,0.0,0.0,63,0.00,,---,0.00,VWS V14.01,2013-02-27 05:05:00,
2013-02-26 21:10:00,43.2,31.4,29.74,South,175,0.0,0.0,63,0.00,,---,0.00,VWS V14.01,2013-02-27 05:10:00,
2013-02-26 21:15:00,43.2,31.4,29.74,SE,125,0.0,0.0,63,0.00,,---,0.00,VWS V14.01,2013-02-27 05:15:00,
2013-02-26 21:20:00,43.2,31.4,29.71,SE,125,0.0,0.0,63,0.00,,---,0.00,VWS V14.01,2013-02-27 05:20:00,
2013-02-26 21:25:00,43.2,31.4,29.71,SE,125,0.0,0.0,63,0.00,,---,0.00,VWS V14.01,2013-02-27 05:25:00,
2013-02-26 21:30:00,43.2,31.4,29.71,SE,125,0.0,0.0,63,0.00,,---,0.00,VWS V14.01,2013-02-27 05:30:00,
2013-02-26 21:35:00,43.2,31.4,29.71,SE,125,0.0,0.0,63,0.00,,---,0.00,VWS V14.01,2013-02-27 05:35:00,
2013-02-26 21:40:00,43.2,31.4,29.71,SE,125,0.0,0.0,63,0.00,,---,0.00,VWS V14.01,2013-02-27 05:40:00,
2013-02-26 21:45:00,43.2,31.4,29.71,SE,125,0.0,0.0,63,0.00,,---,0.00,VWS V14.01,2013-02-27 05:45:00,
2013-02-26 21:50:00,43.2,31.4,29.71,SE,125,0.0,0.0,63,0.00,,---,0.00,VWS V14.01,2013-02-27 05:50:00,
2013-02-26 21:55:00,43.2,31.4,29.71,SE,125,0.0,0.0,63,0.00,,---,0.00,VWS V14.01,2013-02-27 05:55:00,
2013-02-26 22:00:00,43.2,31.4,29.71,SE,125,0.0,0.0,63,0.00,,---,0.00,VWS V14.01,2013-02-27 06:00:00,
2013-02-26 22:05:00,43.2,31.4,29.71,SE,125,0.0,0.0,63,0.00,,---,0.00,VWS V14.01,2013-02-27 06:05:00,
2013-02-26 22:10:00,43.2,31.4,29.71,ENE,78,2.7,2.7,63,0.00,,---,0.00,VWS V14.01,2013-02-27 06:10:00,
2013-02-26 22:15:00,43.2,31.4,29.71,SW,229,3.6,3.6,63,0.00,,---,0.00,VWS V14.01,2013-02-27 06:15:00,
2013-02-26 22:20:00,43.2,31.4,29.71,ENE,64,0.0,0.0,63,0.00,,---,0.00,VWS V14.01,2013-02-27 06:20:00,
2013-02-26 22:25:00,43.2,31.4,29.71,NW,322,0.0,0.0,63,0.00,,---,0.00,VWS V14.01,2013-02-27 06:25:00,
2013-02-26 22:30:00,43.2,31.4,29.71,North,353,0.0,0.0,63,0.00,,---,0.00,VWS V14.01,2013-02-27 06:30:00,
2013-02-26 22:35:00,43.2,31.4,29.71,NE,52,0.0,0.0,63,0.00,,---,0.00,VWS V14.01,2013-02-27 06:35:00,
2013-02-26 22:40:00,43.2,31.4,29.71,East,95,0.0,0.0,63,0.00,,---,0.00,VWS V14.01,2013-02-27 06:40:00,
2013-02-26 22:45:00,43.2,31.4,29.71,East,95,0.0,0.0,63,0.00,,---,0.00,VWS V14.01,2013-02-27 06:45:00,
2013-02-26 22:50:00,43.2,31.4,29.71,East,95,0.0,0.0,63,0.00,,---,0.00,VWS V14.01,2013-02-27 06:50:00,
2013-02-26 22:55:00,43.2,31.4,29.71,East,82,0.0,0.0,63,0.00,,---,0.00,VWS V14.01,2013-02-27 06:55:00,
2013-02-26 23:00:00,43.2,31.4,29.71,East,86,0.0,0.0,63,0.00,,---,0.00,VWS V14.01,2013-02-27 07:00:00,
2013-02-26 23:05:00,43.2,31.4,29.71,East,93,0.0,2.2,63,0.00,,---,0.00,VWS V14.01,2013-02-27 07:05:00,
2013-02-26 23:10:00,43.2,31.4,29.71,ESE,105,2.7,2.7,63,0.00,,---,0.00,VWS V14.01,2013-02-27 07:10:00,
2013-02-26 23:15:00,43.2,31.4,29.71,ENE,58,2.7,4.0,63,0.00,,---,0.00,VWS V14.01,2013-02-27 07:15:00,
2013-02-26 23:20:00,43.2,31.4,29.71,South,171,4.0,4.0,63,0.00,,---,0.00,VWS V14.01,2013-02-27 07:20:00,
2013-02-26 23:25:00,43.2,31.4,29.71,WSW,255,2.2,2.2,63,0.00,,---,0.00,VWS V14.01,2013-02-27 07:25:00,
2013-02-26 23:30:00,43.2,31.4,29.71,SW,219,0.0,2.7,63,0.00,,---,0.00,VWS V14.01,2013-02-27 07:30:00,
2013-02-26 23:35:00,43.2,31.4,29.71,SW,227,0.0,2.2,63,0.00,,---,0.00,VWS V14.01,2013-02-27 07:35:00,
2013-02-26 23:40:00,43.2,31.4,29.71,SE,140,0.0,0.0,63,0.00,,---,0.00,VWS V14.01,2013-02-27 07:40:00,
2013-02-26 23:45:00,43.2,31.4,29.71,SSE,151,0.0,0.0,63,0.00,,---,0.00,VWS V14.01,2013-02-27 07:45:00,
2013-02-26 23:50:00,43.2,31.4,29.71,East,101,3.1,3.1,63,0.00,,---,0.00,VWS V14.01,2013-02-27 07:50:00,
2013-02-26 23:55:00,43.2,31.4,29.71,SSE,156,0.0,2.7,63,0.00,,---,0.00,VWS V14.01,2013-02-27 07:55:00,